GW3797 Weather Reports


time (UTC)temp
F
wind
direction
speed
knots
gust
knots
rain 1hr
in
rain 24hr
in
rain mn
in
humidity
%
barometer
mb
20260503224502 56 170 1.7 7.8 0.00 0.00 0.00 49 1009.8
20260503223959 56 333 1.7 9.6 0.00 0.00 0.00 48 1010.3
20260503223457 56 232 6.1 12.2 0.00 0.00 0.00 48 1009.9
20260503222952 56 157 7.0 7.8 0.00 0.00 0.00 50 1010.3
20260503222451 56 165 4.3 7.8 0.00 0.00 0.00 49 1010.3
20260503221949 56 183 3.5 7.8 0.00 0.00 0.00 49 1010.2
20260503221447 56 215 5.2 13.0 0.00 0.00 0.00 47 1010.1
20260503220944 56 173 4.3 10.4 0.00 0.00 0.00 47 1010.1
20260503220440 56 148 3.5 11.3 0.00 0.00 0.00 48 1010.1
20260503215937 56 255 1.7 14.8 0.00 0.00 0.00 47 1009.9
20260503215433 56 171 3.5 11.3 0.00 0.00 0.00 47 1010.1
20260503214932 56 239 4.3 7.8 0.00 0.00 0.00 47 1010.1
20260503214429 57 258 1.7 4.3 0.00 0.00 0.00 49 1010.1
20260503213926 56 195 4.3 10.4 0.00 0.00 0.00 47 1010.0
20260503213424 56 256 8.7 18.2 0.00 0.00 0.00 46 1009.9
20260503212920 57 237 1.7 7.8 0.00 0.00 0.00 47 1010.0
20260503212418 57 218 2.6 8.7 0.00 0.00 0.00 45 1010.2
20260503211915 58 182 4.3 6.1 0.00 0.00 0.00 44 1009.9
20260503211412 58 194 2.6 14.8 0.00 0.00 0.00 41 1009.9
20260503210907 58 297 5.2 12.2 0.00 0.00 0.00 39 1010.0
20260503210405 58 267 3.5 13.0 0.00 0.00 0.00 37 1010.1
20260503205859 59 291 11.3 11.3 0.00 0.00 0.00 38 1010.1
20260503205356 58 203 3.5 20.9 0.00 0.00 0.00 37 1009.9
20260503204853 59 148 1.7 6.1 0.00 0.00 0.00 39 1009.9
20260503204350 58 202 7.8 8.7 0.00 0.00 0.00 37 1010.2
20260503203847 59 104 3.5 18.2 0.00 0.00 0.00 36 1010.0
20260503203344 60 274 5.2 11.3 0.00 0.00 0.00 34 1010.0
20260503202841 59 217 3.5 11.3 0.00 0.00 0.00 37 1010.2
20260503202339 59 274 9.6 15.6 0.00 0.00 0.00 36 1010.2
20260503201837 60 203 3.5 8.7 0.00 0.00 0.00 36 1010.2
20260503201334 60 148 4.3 14.8 0.00 0.00 0.00 37 1010.2
20260503200832 59 224 6.1 17.4 0.00 0.00 0.00 36 1010.4
20260503200327 60 253 11.3 12.2 0.00 0.00 0.00 37 1010.3
20260503195825 60 215 5.2 11.3 0.00 0.00 0.00 41 1010.3
20260503195321 60 231 11.3 12.2 0.00 0.00 0.00 37 1010.6
20260503194819 59 202 12.2 19.1 0.00 0.00 0.00 39 1010.6
20260503194314 60 297 6.1 13.0 0.00 0.00 0.00 39 1010.6
20260503193810 60 201 2.6 11.3 0.00 0.00 0.00 43 1011.0
20260503193307 60 234 1.7 7.0 0.00 0.00 0.00 41 1010.9
20260503192803 60 203 11.3 13.0 0.00 0.00 0.00 39 1011.2
20260503192258 60 349 2.6 7.8 0.00 0.00 0.00 42 1010.8
20260503191755 60 0 2.6 8.7 0.00 0.00 0.00 41 1011.1
20260503191252 60 195 6.1 11.3 0.00 0.00 0.00 40 1010.9
20260503190749 59 308 5.2 16.5 0.00 0.00 0.00 40 1011.2
20260503190245 58 184 1.7 16.5 0.00 0.00 0.00 42 1011.2
20260503185743 59 39 2.6 9.6 0.00 0.00 0.00 42 1011.2
20260503185238 59 301 4.3 5.2 0.00 0.00 0.00 40 1011.2
20260503184733 59 301 10.4 11.3 0.00 0.00 0.00 41 1011.4
20260503184230 59 273 2.6 11.3 0.00 0.00 0.00 43 1011.5
20260503183726 58 227 7.0 11.3 0.00 0.00 0.00 42 1011.5
20260503183223 58 253 4.3 14.8 0.00 0.00 0.00 41 1011.5
20260503182721 58 251 2.6 11.3 0.00 0.00 0.00 43 1011.5
20260503182220 59 267 3.5 7.8 0.00 0.00 0.00 43 1011.8
20260503181716 58 185 2.6 11.3 0.00 0.00 0.00 43 1011.6
20260503181213 59 230 8.7 17.4 0.00 0.00 0.00 38 1011.7
20260503180709 59 311 2.6 8.7 0.00 0.00 0.00 42 1011.5
20260503180208 59 231 11.3 16.5 0.00 0.00 0.00 40 1011.7
20260503175704 59 220 7.0 14.8 0.00 0.00 0.00 42 1011.7
20260503175202 59 278 2.6 7.0 0.00 0.00 0.00 46 1011.7
20260503174657 59 269 7.8 9.6 0.00 0.00 0.00 41 1011.9
20260503174155 59 157 2.6 4.3 0.00 0.00 0.00 46 1011.8
20260503173650 57 117 5.2 10.4 0.00 0.00 0.00 43 1012.0
20260503173147 56 129 1.7 7.0 0.00 0.00 0.00 45 1012.1
20260503172644 56 340 3.5 9.6 0.00 0.00 0.00 46 1011.9
20260503172141 56 282 3.5 10.4 0.00 0.00 0.00 42 1012.0
20260503171637 56 178 1.7 9.6 0.00 0.00 0.00 43 1012.1
20260503171135 57 276 7.8 7.8 0.00 0.00 0.00 40 1012.2
20260503170632 55 166 9.6 14.8 0.00 0.00 0.00 40 1012.2
20260503170129 58 181 2.6 7.8 0.00 0.00 0.00 40 1012.2
20260503150520 51 204 1.7 3.5 0.00 0.00 0.00 45 1013.4
20260503131413 48 226 0.0 7.8 0.00 0.00 0.00 67 1013.7
20260503130910 47 241 2.6 7.0 0.00 0.00 0.00 67 1013.7
20260503130408 48 238 6.1 9.6 0.00 0.00 0.00 66 1013.8
20260503110811 39 148 4.3 5.2 0.00 0.00 0.00 82 1013.6
20260503110308 39 142 7.0 8.7 0.00 0.00 0.00 82 1013.3
20260503100234 35 97 1.7 3.5 0.00 0.00 0.00 87 1013.2
20260503090154 33 132 2.6 3.5 0.00 0.00 0.00 89 1013.4
20260503081629 33 103 2.6 4.3 0.00 0.00 0.00 91 1013.4
20260503081126 33 124 2.6 4.3 0.00 0.00 0.00 92 1013.5
20260503080622 32 133 5.2 5.2 0.00 0.00 0.00 93 1013.2
20260503080119 32 121 3.5 3.5 0.00 0.00 0.00 93 1013.5
20260503072556 33 134 3.5 4.3 0.00 0.00 0.00 93 1013.6
20260503072053 33 125 2.6 4.3 0.00 0.00 0.00 93 1013.5
20260503071550 33 112 3.5 3.5 0.00 0.00 0.00 92 1013.5
20260503071047 33 127 2.6 3.5 0.00 0.00 0.00 92 1013.5
20260503070543 33 117 1.7 4.3 0.00 0.00 0.00 92 1013.5
20260503055003 33 113 2.6 3.5 0.00 0.00 0.00 92 1013.8
20260503054458 33 129 2.6 4.3 0.00 0.00 0.00 92 1014.0
20260503053956 33 125 3.5 4.3 0.00 0.00 0.00 92 1014.0
20260503053454 33 113 3.5 4.3 0.00 0.00 0.00 92 1014.4
20260503052950 33 112 1.7 3.5 0.00 0.00 0.00 92 1014.1
20260503052448 33 109 2.6 4.3 0.00 0.00 0.00 92 1014.1
20260503051944 33 150 2.6 3.5 0.00 0.00 0.00 91 1014.1
20260503051440 33 119 3.5 4.3 0.00 0.00 0.00 91 1014.1
20260503050937 33 120 3.5 3.5 0.00 0.00 0.00 91 1014.0
20260503050433 33 128 3.5 3.5 0.00 0.00 0.00 91 1014.1
20260503045931 33 111 2.6 3.5 0.00 0.00 0.00 91 1014.3
20260503045428 33 132 3.5 4.3 0.00 0.00 0.00 91 1014.4
20260503044925 33 120 3.5 4.3 0.00 0.00 0.00 90 1014.5
20260503044422 33 133 3.5 3.5 0.00 0.00 0.00 90 1014.6
20260503043920 34 112 2.6 3.5 0.00 0.00 0.00 90 1014.4
20260503043416 33 129 2.6 3.5 0.00 0.00 0.00 90 1014.4
20260503042912 34 129 2.6 3.5 0.00 0.00 0.00 90 1014.5
20260503042409 34 127 2.6 2.6 0.00 0.00 0.00 89 1014.5
20260503041905 34 117 2.6 3.5 0.00 0.00 0.00 89 1014.5
20260503041402 34 107 1.7 3.5 0.00 0.00 0.00 88 1014.5
20260503040900 34 113 1.7 3.5 0.00 0.00 0.00 89 1014.4
20260503040357 34 140 3.5 3.5 0.00 0.00 0.00 89 1014.5
20260503035854 34 110 1.7 3.5 0.00 0.00 0.00 88 1014.6
20260503035351 34 101 2.6 4.3 0.00 0.00 0.00 88 1014.5
20260503034848 35 110 1.7 3.5 0.00 0.00 0.00 88 1014.5
20260503034346 35 122 3.5 3.5 0.00 0.00 0.00 87 1014.6
20260503033843 35 145 1.7 2.6 0.00 0.00 0.00 86 1014.5
20260503033340 35 126 2.6 3.5 0.00 0.00 0.00 86 1014.5
20260503032838 35 134 1.7 2.6 0.00 0.00 0.00 85 1014.6
20260503032337 36 133 1.7 2.6 0.00 0.00 0.00 84 1014.4
20260503031834 36 136 1.7 2.6 0.00 0.00 0.00 84 1014.7
20260503031331 36 140 1.7 3.5 0.00 0.00 0.00 82 1014.6
20260503030827 36 125 2.6 2.6 0.00 0.00 0.00 81 1014.6
20260503030324 37 107 1.7 3.5 0.00 0.00 0.00 80 1014.8
20260503025821 37 121 1.7 2.6 0.00 0.00 0.00 80 1014.6
20260503025319 37 130 2.6 3.5 0.00 0.00 0.00 79 1014.8
20260503024815 37 136 2.6 2.6 0.00 0.00 0.00 79 1014.7
20260503024312 38 152 2.6 4.3 0.00 0.00 0.00 76 1014.9
20260503023809 38 133 1.7 2.6 0.00 0.00 0.00 76 1014.9
20260503023306 39 120 1.7 2.6 0.00 0.00 0.00 72 1014.9
20260503022803 39 104 1.7 4.3 0.00 0.00 0.00 72 1015.0
20260503022304 39 205 0.0 4.3 0.00 0.00 0.00 71 1015.1
20260503021759 40 177 0.0 1.7 0.00 0.00 0.00 70 1015.0
20260503021255 40 114 1.7 3.5 0.00 0.00 0.00 70 1014.9
20260503020753 40 80 2.6 2.6 0.00 0.00 0.00 72 1014.9
20260503020251 40 148 1.7 1.7 0.00 0.00 0.00 71 1015.1
20260503015747 40 43 0.0 1.7 0.00 0.00 0.00 70 1015.0
20260503015244 41 129 2.6 3.5 0.00 0.00 0.00 70 1014.8
20260503014739 41 116 1.7 7.0 0.00 0.00 0.00 68 1014.7
20260503014238 41 24 1.7 3.5 0.00 0.00 0.00 70 1014.8
20260503013734 41 359 0.0 4.3 0.00 0.00 0.00 69 1014.8
20260503013232 41 219 2.6 4.3 0.00 0.00 0.00 68 1014.8
20260503012729 41 260 1.7 4.3 0.00 0.00 0.00 68 1014.8
20260503012226 41 242 0.0 5.2 0.00 0.00 0.00 68 1014.9
20260503011723 41 114 1.7 4.3 0.00 0.00 0.00 69 1014.8
20260503011220 41 253 0.9 5.2 0.00 0.00 0.00 71 1014.9
20260503010716 41 241 0.9 4.3 0.00 0.00 0.00 72 1014.8
20260503010213 41 140 2.6 2.6 0.00 0.00 0.00 69 1014.9
20260503005711 41 105 1.7 3.5 0.00 0.00 0.00 70 1014.8
20260503005208 41 160 3.5 3.5 0.00 0.00 0.00 69 1014.9
20260503004704 41 198 2.6 7.8 0.00 0.00 0.00 67 1014.8
20260503004203 41 271 2.6 4.3 0.00 0.00 0.00 68 1014.6
20260503003659 41 273 3.5 3.5 0.00 0.00 0.00 68 1014.8
20260503003156 41 97 1.7 2.6 0.00 0.00 0.00 69 1014.7
20260503002653 41 194 1.7 4.3 0.00 0.00 0.00 67 1014.6
20260503002149 41 42 0.9 0.9 0.00 0.00 0.00 68 1014.7
20260503001645 41 127 1.7 2.6 0.00 0.00 0.00 68 1014.7
20260503001143 41 8 1.7 4.3 0.00 0.00 0.00 68 1014.7
20260503000640 41 283 1.7 2.6 0.00 0.00 0.00 67 1014.8
20260503000137 41 66 3.5 4.3 0.00 0.00 0.00 66 1014.7
20260502235634 41 330 0.9 2.6 0.00 0.00 0.00 68 1014.7
20260502235132 41 280 1.7 2.6 0.00 0.00 0.00 67 1014.8
20260502234627 41 7 1.7 2.6 0.00 0.00 0.00 65 1014.8
20260502234125 41 179 1.7 4.3 0.00 0.00 0.00 64 1014.7
20260502233621 41 182 2.6 2.6 0.00 0.00 0.00 66 1014.6
20260502233118 42 145 2.6 2.6 0.00 0.00 0.00 65 1014.7
20260502232614 41 313 3.5 3.5 0.00 0.00 0.00 67 1014.8
20260502232112 42 337 0.0 2.6 0.00 0.00 0.00 67 1015.0
20260502231608 42 341 3.5 4.3 0.00 0.00 0.00 66 1014.7
20260502231106 42 195 3.5 3.5 0.00 0.00 0.00 66 1014.7
20260502230604 41 96 1.7 2.6 0.00 0.00 0.00 63 1014.8
20260502225557 42 244 3.5 7.8 0.00 0.00 0.00 61 1014.6
20260502225055 43 194 2.6 5.2 0.00 0.00 0.00 62 1014.7